Weather Service Report


842 
ASUS45 KTFX 280819
RWRMT 
MONTANA HOURLY WEATHER ROUNDUP
NATIONAL WEATHER SERVICE GREAT FALLS MT
219 AM MDT MON JUL 28 2014

NOTE: "FAIR" INDICATES FEW OR NO CLOUDS BELOW 12000 FEET WITH NO
SIGNIFICANT WEATHER AND/OR OBSTRUCTIONS TO VISIBILITY.

* THESE STATIONS ARE NOT UNDER NWS QUALITY CONTROL. THEY DO NOT
   REPORT WEATHER SUCH AS PRECIPITATION OR FOG.

MTZ001>007-043-280900-
WEST OF THE DIVIDE
CITY           SKY/WX    TMP DP  RH WIND       PRES   REMARKS
KALISPELL      PTCLDY    54  48  80 NW5       30.16S 
MISSOULA       PTCLDY    64  43  47 CALM      30.19R 
BUTTE          CLEAR     55  32  42 S6        30.33S 
MULLAN PASS    CLOUDY    66  36  33 SE7       30.33S 
* ESSEX        N/A       58  43  58 SE7G13     N/A   
* LINCOLN      N/A       52  44  74 NW1        N/A   
* LOOKOUT PASS N/A       62  45  54 N/A        N/A   
* POLSON       N/A       66  40  39 N/A        N/A   
* RONAN APT    MOCLDY    55  52  90 N/A        N/A   
* SEELEY LAKE  N/A       48  39  71 NE1        N/A   
* THOMP F APT  CLOUDY    66  26  22 NW4        N/A   
* YAAK HILL    N/A       61  46  58 S1         N/A   
$$

MTZ008-052>055-280900-
SOUTHWEST MONTANA
CITY           SKY/WX    TMP DP  RH WIND       PRES   REMARKS
BOZEMAN        CLEAR     57  43  60 N5        30.25S 
DILLON         PTCLDY    54  39  57 SW7       30.28R 
W YELLOWSTONE  PTCLDY    45  36  71 CALM      30.41S 
* THREE FORKS  PTCLDY    54  50  86 N/A        N/A   
* BOULDER HILL N/A       62  32  32 SW1        N/A   
* WHITEHALL    N/A       61  34  36 VRB3G9     N/A   
* WISE RIVER   N/A       55  30  39 S2G7       N/A   
$$

MTZ009>010-012-014-046-048-049-054-280900-
EAST SLOPES AND CENTRAL MONTANA
CITY           SKY/WX    TMP DP  RH WIND       PRES   REMARKS
CUT BANK       CLEAR     57  43  60 CALM      30.26S 
GREAT FALLS    CLEAR     63  41  45 E7        30.21S 
HELENA         CLEAR     63  39  41 NW3       30.24R 
MALMSTROM AFB  CLEAR     66  39  37 SE13      30.22S 
* CONRAD       PTCLDY    52  52 100 N/A        N/A   
* DEARBORN     N/A       61  41  48 S1         N/A   
* EAST GLACIER N/A       53  39  59 NW8        N/A   
* ROGERS PASS  N/A       60  34  38 NW3        N/A   
* SAINT MARY   N/A       45  41  86 S3         N/A   
* SWEET GRASS  N/A       66  41  40 S15G23     N/A   
* WHITE SULPH  N/A       63  37  38 NE7G12     N/A   
$$

MTZ011-013-016-021-035-040-045-047-050-051-280900-
NORTH CENTRAL MONTANA
CITY           SKY/WX    TMP DP  RH WIND       PRES   REMARKS
HAVRE          CLEAR     64  46  52 E12       30.22S 
LEWISTOWN      CLEAR     66  43  43 E17       30.29F 
* FORT BENTON  CLEAR     72  39  30 NE13G20   30.20R 
* CHESTER      N/A       67  43  42 SE3        N/A   
* DENTON       N/A       69  41  36 SE15       N/A   
* GEYSER       N/A       54  39  57 S2         N/A   
* JUDITH GAP   N/A       64  39  40 SE13G19    N/A   
* LOMA         N/A       69  43  39 NE15G20    N/A   
$$

MTZ017>020-022>027-061-062-280900-
NORTHEAST MONTANA
CITY           SKY/WX    TMP DP  RH WIND       PRES   REMARKS
GLASGOW        CLEAR     61  52  72 E12       30.26S 
GLENDIVE       CLEAR     55  48  77 CALM      30.33R 
JORDAN         CLEAR     54  39  57 CALM      30.28R 
SIDNEY         CLEAR     55  48  77 CALM      30.32F 
WOLF POINT     CLEAR     55  48  77 NE5       30.29S 
* BEAVER HILL  N/A       55  51  86 SE11       N/A   
* CIRCLE       N/A       60  52  75 N/A        N/A   
* LINDSAY DVD  N/A       55  51  86 E8         N/A   
* NAVAJO       N/A       53  51  93 S5         N/A   
$$

MTZ028>042-056>058-280900-
SOUTHCENTRAL AND SOUTHEAST MONTANA
CITY           SKY/WX    TMP DP  RH WIND       PRES   REMARKS
BAKER          CLEAR     54  52  93 E9        30.33F 
BILLINGS       CLEAR     64  39  40 NE8       30.26S 
LIVINGSTON     CLEAR     64  39  40 SE7       30.30R 
MILES CITY     CLEAR     64  52  65 S7        30.28S 
* LAUREL APT   CLEAR     66  37  34 N6         N/A   
* ROUNDUP APT  PTCLDY    64  39  40 N/A        N/A   
* ALZADA       N/A       58  52  81 E6         N/A   
* HYSHAM       N/A       67  41  39 NE7        N/A   
* LAME DEER    N/A       63  44  50 SE7G13     N/A   
* REED POINT   N/A       56  49  77 N/A        N/A   
* ROSCOE HILL  N/A       61  36  39 SW3        N/A   
$$

REGIONAL REPORTS...DAKOTAS
CITY           SKY/WX    TMP DP  RH WIND       PRES   REMARKS
WILLISTON      CLEAR     54  50  86 CALM      30.31S 
DICKINSON      CLEAR     48  46  93 S7        30.33R 
CROSBY         N/A       57  57 100 CALM      30.31S 
TIOGA          CLOUDY    48  48 100 CALM      30.35R 
WATFORD CITY   CLEAR     48  48 100 CALM      30.30S 
BISMARCK       CLEAR     52  50  93 SW3       30.32S 
GRAND FORKS    CLOUDY    61  55  81 NW5        N/A   
FARGO          CLOUDY    61  55  81 N6        30.22S 
BUFFALO SD     CLEAR     54  52  93 E6        30.29S 
RAPID CITY     CLEAR     52  48  86 CALM      30.36S 
$$

REGIONAL REPORTS...WYOMING/IDAHO/WASHINGTON
CITY           SKY/WX    TMP DP  RH WIND       PRES   REMARKS
GILLETTE       CLEAR     52  43  72 N3        30.34S 
SHERIDAN       CLEAR     63  45  52 CALM      30.29F 
YELLOWSTONE LA CLEAR     45  36  71 NW3       30.52S 
MULLAN PASS    CLOUDY    66  36  33 SE7       30.33S 
SAND POINT     PTCLDY    55  50  83 W3        30.12S 
SPOKANE        CLOUDY    77  41  28 NE6       30.10S 
$$

REGIONAL REPORTS...ALBERTA
CITY           SKY/WX    TMP DP  RH WIND       PRES   REMARKS
CALGARY        FAIR      59  50  72 SE5       30.25R 
LETHBRIDGE     CLEAR     59  52  78 S6        30.20F 
MEDICINE HAT   CLEAR     61  54  78 NE8       30.22R 
EDMONTON       PTCLDY    57  55  93 SE7       30.21S 
WATERTON GATE  N/A       48  45  89 S1         N/A   
CARDSTON       N/A       52  50  93 SE6        N/A   
MILK RIVER     N/A       59  43  56 S5         N/A   
$$

REGIONAL REPORTS...SASKATCHEWAN
CITY           SKY/WX    TMP DP  RH WIND       PRES   REMARKS
SWIFT CURRENT  CLEAR     54  50  86 S8        30.27R 
REGINA         PTCLDY    55  54  96 E7        30.30S 
VAL MARIE      N/A       52  50  93 CALM       N/A   
ASSINIBOIA     N/A       55  52  90 SE5        N/A   
CORONACH       N/A       52  50  93 SE3        N/A   

$$


Return to Home page


Western Regional Climate Center, wrcc@dri.edu